Location: Wavehorne
(51.0500°N, 0.8333°E)
Time: 15:08:19
(UTC+00:00)

IRS-1D - Pass Details

Date: 20 June 2021
Orbit: 739 x 817 km, 98.6° (Epoch: 01 August)

Event Time Altitude Azimuth Distance (km) Brightness Sun altitude
Rises 01:58:14 0° 19° (NNE) 3,290 8.8 -11.0°
Reaches altitude 10° 02:00:42 10° 25° (NNE) 2,345 7.6 -10.8°
Maximum altitude 02:05:39 46° 99° (E) 1,031 4.4 -10.4°
Drops below altitude 10° 02:10:28 10° 172° (S) 2,281 5.5 -10.0°
Enters shadow 02:11:12 - 175° (S) 2,557 5.7 -10.0°
